TimeCST,TemperatureF,Dew PointF,Humidity,Sea Level PressureIn,VisibilityMPH,Wind Direction,Wind SpeedMPH,Gust SpeedMPH,PrecipitationIn,Events,Conditions,WindDirDegrees,DateUTC
12:53 AM,44.1,28.0,53,30.39,10.0,South,8.1,-,N/A,,Clear,180,2012-11-14 06:53:00
1:53 AM,43.0,28.9,58,30.39,10.0,South,6.9,-,N/A,,Clear,180,2012-11-14 07:53:00
2:53 AM,43.0,28.0,56,30.40,10.0,SSW,4.6,-,N/A,,Clear,200,2012-11-14 08:53:00
3:53 AM,41.0,28.0,60,30.39,10.0,SSE,5.8,-,N/A,,Clear,160,2012-11-14 09:53:00
4:53 AM,39.0,27.0,62,30.40,10.0,South,5.8,-,N/A,,Clear,170,2012-11-14 10:53:00
5:53 AM,39.0,26.1,60,30.40,10.0,South,3.5,-,N/A,,Clear,190,2012-11-14 11:53:00
6:53 AM,37.9,26.1,62,30.41,10.0,South,3.5,-,N/A,,Clear,180,2012-11-14 12:53:00
7:53 AM,39.0,27.0,62,30.42,10.0,South,5.8,-,N/A,,Clear,180,2012-11-14 13:53:00
8:53 AM,45.0,26.1,48,30.42,10.0,SSW,8.1,-,N/A,,Clear,210,2012-11-14 14:53:00
9:53 AM,48.9,27.0,43,30.42,10.0,SSW,6.9,-,N/A,,Clear,200,2012-11-14 15:53:00
10:53 AM,53.1,25.0,34,30.41,10.0,SSW,9.2,-,N/A,,Clear,210,2012-11-14 16:53:00
11:53 AM,54.0,24.1,31,30.38,10.0,South,6.9,-,N/A,,Clear,190,2012-11-14 17:53:00
12:53 PM,55.0,24.1,30,30.36,10.0,Variable,5.8,-,N/A,,Clear,0,2012-11-14 18:53:00
1:53 PM,55.9,23.0,28,30.33,10.0,South,11.5,-,N/A,,Clear,180,2012-11-14 19:53:00
2:53 PM,55.0,21.9,28,30.32,10.0,SSW,8.1,-,N/A,,Clear,200,2012-11-14 20:53:00
3:53 PM,55.0,24.1,30,30.32,10.0,South,8.1,-,N/A,,Clear,180,2012-11-14 21:53:00
4:53 PM,52.0,24.1,34,30.30,10.0,SSE,6.9,-,N/A,,Clear,160,2012-11-14 22:53:00
5:53 PM,48.9,24.1,38,30.30,10.0,SSE,4.6,-,N/A,,Clear,160,2012-11-14 23:53:00
6:53 PM,46.9,25.0,42,30.31,10.0,SSE,4.6,-,N/A,,Clear,150,2012-11-15 00:53:00
7:53 PM,46.0,25.0,44,30.31,10.0,SE,5.8,-,N/A,,Clear,140,2012-11-15 01:53:00
8:53 PM,45.0,25.0,46,30.31,10.0,SSE,6.9,-,N/A,,Clear,160,2012-11-15 02:53:00
9:53 PM,43.0,25.0,49,30.31,10.0,SSE,6.9,-,N/A,,Clear,160,2012-11-15 03:53:00
10:53 PM,43.0,25.0,49,30.30,10.0,South,5.8,-,N/A,,Clear,170,2012-11-15 04:53:00
11:53 PM,42.1,25.0,51,30.30,10.0,South,5.8,-,N/A,,Clear,180,2012-11-15 05:53:00